Private Wetterstation Wechselburg
Wetterdaten: Samstag, 12.11.2011
Datum Zeit Temp. +2m Bodentemp. Temp.+5cm Temp. Wind Windchill X Diff Temp. Feuchte +2m Feuchte +5cm Sonnenschein Luftdruck Regen Wind Richtung Richtung Sonnenschein UV Taupunkt Windchill Windben
12.11.2011 00:00 -1,3 C 11,1 C -1,3 C -1,9 C -3,0 C 0,0 C 87 % 89 % 0 % 1033,1 hPa 0,0 l/m 0,6 km/h (0 Bft) NW 315 0 min 0,0 UV-I -3,2 C -3,0 C 0,0 km/h (0 Bft)
12.11.2011 00:14 -1,3 C 11,1 C -1,5 C -1,9 C -3,0 C 0,0 C 88 % 90 % 0 % 1033,1 hPa 0,0 l/m 0,5 km/h (0 Bft) N-NO 22 0 min 0,0 UV-I -3,0 C -3,0 C 0,0 km/h (0 Bft)
12.11.2011 00:16 -1,3 C 11,1 C -1,3 C -1,8 C -2,9 C 0,0 C 88 % 90 % 0 % 1033,1 hPa 0,0 l/m 0,3 km/h (0 Bft) O-NO 67 0 min 0,0 UV-I -3,0 C -2,9 C 0,0 km/h (0 Bft)
12.11.2011 00:26 -1,5 C 11,1 C -1,5 C -2,0 C -3,1 C 0,0 C 88 % 90 % 0 % 1033,1 hPa 0,0 l/m 0,0 km/h (0 Bft) O 90 0 min 0,0 UV-I -3,2 C -3,1 C 0,0 km/h (0 Bft)
12.11.2011 00:27 -1,5 C 11,1 C -1,5 C -2,0 C -3,1 C 0,0 C 88 % 90 % 0 % 1033,1 hPa 0,0 l/m 0,0 km/h (0 Bft) O 90 0 min 0,0 UV-I -3,2 C -3,1 C 0,0 km/h (0 Bft)
12.11.2011 00:30 -1,6 C 11,1 C -1,7 C -2,1 C -3,0 C 0,0 C 88 % 90 % 0 % 1033,1 hPa 0,0 l/m 0,0 km/h (0 Bft) NO 45 0 min 0,0 UV-I -3,3 C -3,0 C 0,0 km/h (0 Bft)
12.11.2011 00:35 -1,5 C 11,1 C -1,7 C -2,0 C -2,9 C 0,0 C 88 % 90 % 0 % 1033,1 hPa 0,0 l/m 0,0 km/h (0 Bft) N-NO 22 0 min 0,0 UV-I -3,2 C -2,9 C 0,0 km/h (0 Bft)
12.11.2011 00:40 -1,6 C 11,1 C -1,6 C -2,1 C -3,0 C 0,0 C 88 % 90 % 0 % 1033,1 hPa 0,0 l/m 0,0 km/h (0 Bft) W-NW 292 0 min 0,0 UV-I -3,3 C -3,0 C 0,0 km/h (0 Bft)
12.11.2011 00:45 -1,5 C 11,1 C -1,5 C -2,0 C -3,1 C 0,0 C 88 % 90 % 0 % 1033,1 hPa 0,0 l/m 0,0 km/h (0 Bft) N 360 0 min 0,0 UV-I -3,2 C -3,1 C 0,0 km/h (0 Bft)
12.11.2011 00:50 -1,7 C 11,1 C -1,7 C -2,2 C -3,1 C 0,0 C 88 % 90 % 0 % 1033,1 hPa 0,0 l/m 0,0 km/h (0 Bft) N-NO 22 0 min 0,0 UV-I -3,4 C -3,1 C 0,0 km/h (0 Bft)
12.11.2011 00:55 -1,7 C 11,1 C -1,8 C -2,2 C -3,1 C 0,0 C 88 % 90 % 0 % 1033,1 hPa 0,0 l/m 0,0 km/h (0 Bft) O-NO 67 0 min 0,0 UV-I -3,4 C -3,1 C 0,0 km/h (0 Bft)
12.11.2011 01:00 -1,7 C 11,0 C -1,7 C -2,1 C -2,9 C 0,0 C 89 % 90 % 0 % 1032,9 hPa 0,0 l/m 0,0 km/h (0 Bft) O-NO 67 0 min 0,0 UV-I -3,3 C -2,9 C 0,0 km/h (0 Bft)
12.11.2011 01:07 -1,4 C 11,0 C -1,4 C -1,8 C -2,6 C 0,0 C 89 % 90 % 0 % 1032,9 hPa 0,0 l/m 0,6 km/h (0 Bft) N 0 0 min 0,0 UV-I -3,0 C -2,6 C 4,0 km/h (1 Bft)
12.11.2011 01:20 -0,5 C 10,8 C -0,9 C -1,1 C -2,3 C 0,0 C 88 % 91 % 0 % 1033,1 hPa 0,0 l/m 2,9 km/h (1 Bft) O 90 0 min 0,0 UV-I -2,2 C -2,3 C 6,3 km/h (2 Bft)
12.11.2011 01:25 -0,1 C 10,8 C -0,3 C -0,8 C -2,1 C 0,0 C 88 % 91 % 0 % 1033,1 hPa 0,0 l/m 3,2 km/h (1 Bft) O 90 0 min 0,0 UV-I -1,8 C -2,1 C 3,9 km/h (1 Bft)
12.11.2011 01:30 0,1 C 10,7 C -0,3 C -0,7 C -2,2 C 0,0 C 87 % 91 % 0 % 1033,1 hPa 0,0 l/m 3,5 km/h (1 Bft) O-NO 67 0 min 0,0 UV-I -1,8 C -2,2 C 3,9 km/h (1 Bft)
12.11.2011 01:35 0,3 C 10,7 C -0,1 C -0,4 C -1,8 C 0,0 C 86 % 90 % 0 % 1033,1 hPa 0,0 l/m 3,5 km/h (1 Bft) O-NO 67 0 min 0,0 UV-I -1,8 C -1,8 C 2,9 km/h (1 Bft)
12.11.2011 01:40 0,4 C 10,7 C 0,0 C -0,2 C -1,5 C 0,0 C 85 % 90 % 0 % 1033,6 hPa 0,0 l/m 3,1 km/h (1 Bft) O-SO 112 0 min 0,0 UV-I -1,8 C -1,5 C 4,2 km/h (1 Bft)
12.11.2011 01:45 0,5 C 10,7 C 0,1 C -0,2 C -1,6 C 0,0 C 85 % 89 % 0 % 1033,6 hPa 0,0 l/m 3,4 km/h (1 Bft) O 90 0 min 0,0 UV-I -1,7 C -1,6 C 3,2 km/h (1 Bft)
12.11.2011 01:50 0,7 C 10,7 C 0,3 C -0,1 C -1,8 C 0,0 C 85 % 89 % 0 % 1033,6 hPa 0,0 l/m 3,9 km/h (1 Bft) SO 135 0 min 0,0 UV-I -1,5 C -1,8 C 6,6 km/h (2 Bft)
12.11.2011 01:55 0,7 C 10,7 C 0,3 C -0,1 C -1,8 C 0,0 C 84 % 89 % 0 % 1033,6 hPa 0,0 l/m 4,0 km/h (1 Bft) O-SO 112 0 min 0,0 UV-I -1,7 C -1,8 C 7,9 km/h (2 Bft)
12.11.2011 02:00 0,9 C 10,7 C 0,4 C 0,1 C -1,6 C 0,0 C 84 % 89 % 0 % 1033,6 hPa 0,0 l/m 4,0 km/h (1 Bft) O-SO 112 0 min 0,0 UV-I -1,5 C -1,6 C 8,2 km/h (2 Bft)
12.11.2011 02:10 0,7 C 10,7 C 0,3 C 0,1 C -1,1 C 0,0 C 83 % 88 % 0 % 1033,6 hPa 0,0 l/m 2,9 km/h (1 Bft) N 0 0 min 0,0 UV-I -1,8 C -1,1 C 4,2 km/h (1 Bft)
12.11.2011 02:20 0,7 C 10,7 C 0,3 C 0,2 C -0,9 C 0,0 C 83 % 88 % 0 % 1033,6 hPa 0,0 l/m 2,7 km/h (1 Bft) N-NO 22 0 min 0,0 UV-I -1,8 C -0,9 C 1,6 km/h (1 Bft)
12.11.2011 02:25 0,5 C 10,7 C -0,1 C 0,0 C -0,9 C 0,0 C 83 % 87 % 0 % 1033,6 hPa 0,0 l/m 1,1 km/h (1 Bft) O-NO 67 0 min 0,0 UV-I -2,0 C -0,9 C 0,0 km/h (0 Bft)
12.11.2011 02:30 0,3 C 10,7 C -0,1 C -0,2 C -1,3 C 0,0 C 83 % 87 % 0 % 1033,6 hPa 0,0 l/m 0,6 km/h (0 Bft) N-NO 22 0 min 0,0 UV-I -2,2 C -1,3 C 1,8 km/h (1 Bft)
12.11.2011 02:35 0,1 C 10,7 C -0,3 C -0,5 C -1,6 C 0,0 C 83 % 87 % 0 % 1033,6 hPa 0,0 l/m 0,3 km/h (0 Bft) NW 315 0 min 0,0 UV-I -2,4 C -1,6 C 0,0 km/h (0 Bft)
12.11.2011 02:40 0,0 C 10,7 C -0,5 C -0,6 C -1,8 C 0,0 C 83 % 87 % 0 % 1033,6 hPa 0,0 l/m 0,2 km/h (0 Bft) W 270 0 min 0,0 UV-I -2,5 C -1,8 C 0,0 km/h (0 Bft)
12.11.2011 02:45 -0,2 C 10,7 C -0,5 C -0,9 C -2,2 C 0,0 C 84 % 88 % 0 % 1033,6 hPa 0,0 l/m 0,0 km/h (0 Bft) W-NW 292 0 min 0,0 UV-I -2,6 C -2,2 C 0,0 km/h (0 Bft)
12.11.2011 02:50 -0,3 C 10,7 C -0,7 C -0,9 C -2,2 C 0,0 C 84 % 88 % 0 % 1033,6 hPa 0,0 l/m 0,2 km/h (0 Bft) N 360 0 min 0,0 UV-I -2,7 C -2,2 C 2,3 km/h (1 Bft)
12.11.2011 02:55 -0,1 C 10,7 C -0,8 C -0,7 C -2,0 C 0,0 C 84 % 88 % 0 % 1033,6 hPa 0,0 l/m 0,5 km/h (0 Bft) N-NO 22 0 min 0,0 UV-I -2,5 C -2,0 C 0,0 km/h (0 Bft)
12.11.2011 03:00 -0,1 C 10,7 C -0,8 C -0,7 C -1,9 C 0,0 C 84 % 88 % 0 % 1033,3 hPa 0,0 l/m 0,5 km/h (0 Bft) NO 45 0 min 0,0 UV-I -2,5 C -1,9 C 0,0 km/h (0 Bft)
12.11.2011 03:12 -0,5 C 10,7 C -0,9 C -1,1 C -2,4 C 0,0 C 84 % 88 % 0 % 1033,3 hPa 0,0 l/m 0,0 km/h (0 Bft) N 0 0 min 0,0 UV-I -2,9 C -2,4 C 0,0 km/h (0 Bft)
12.11.2011 03:20 -0,7 C 10,7 C -0,9 C -1,3 C -2,6 C 0,0 C 85 % 88 % 0 % 1033,7 hPa 0,0 l/m 0,0 km/h (0 Bft) O-SO 112 0 min 0,0 UV-I -2,9 C -2,6 C 0,0 km/h (0 Bft)
12.11.2011 03:25 -0,8 C 10,7 C -1,1 C -1,5 C -2,8 C 0,0 C 85 % 88 % 0 % 1033,7 hPa 0,0 l/m 0,0 km/h (0 Bft) N-NO 22 0 min 0,0 UV-I -3,0 C -2,8 C 0,0 km/h (0 Bft)
12.11.2011 03:30 -0,9 C 10,8 C -1,1 C -1,5 C -2,7 C 0,0 C 85 % 88 % 0 % 1033,7 hPa 0,0 l/m 0,0 km/h (0 Bft) N-NW 337 0 min 0,0 UV-I -3,1 C -2,7 C 0,0 km/h (0 Bft)
12.11.2011 03:35 -0,9 C 10,8 C -1,1 C -1,5 C -2,7 C 0,0 C 85 % 88 % 0 % 1033,7 hPa 0,0 l/m 0,0 km/h (0 Bft) N-NW 337 0 min 0,0 UV-I -3,1 C -2,7 C 0,0 km/h (0 Bft)
12.11.2011 03:40 -1,1 C 10,7 C -1,3 C -1,7 C -2,8 C 0,0 C 86 % 88 % 0 % 1033,7 hPa 0,0 l/m 0,0 km/h (0 Bft) NO 45 0 min 0,0 UV-I -3,1 C -2,8 C 0,0 km/h (0 Bft)
12.11.2011 03:45 -1,2 C 10,7 C -1,3 C -1,7 C -2,8 C 0,0 C 86 % 88 % 0 % 1033,7 hPa 0,0 l/m 0,0 km/h (0 Bft) O-NO 67 0 min 0,0 UV-I -3,2 C -2,8 C 0,0 km/h (0 Bft)
12.11.2011 03:50 -1,3 C 10,8 C -1,6 C -1,8 C -2,7 C 0,0 C 86 % 88 % 0 % 1033,7 hPa 0,0 l/m 0,3 km/h (0 Bft) O 90 0 min 0,0 UV-I -3,3 C -2,7 C 3,1 km/h (1 Bft)
12.11.2011 03:55 -1,3 C 10,6 C -1,5 C -1,7 C -2,6 C 0,0 C 87 % 89 % 0 % 1033,7 hPa 0,0 l/m 1,9 km/h (1 Bft) O-SO 112 0 min 0,0 UV-I -3,2 C -2,6 C 3,5 km/h (1 Bft)
12.11.2011 04:00 -0,9 C 10,5 C -0,9 C -1,6 C -3,1 C 0,0 C 88 % 90 % 0 % 1032,6 hPa 0,0 l/m 3,2 km/h (1 Bft) O-SO 112 0 min 0,0 UV-I -2,6 C -3,1 C 1,9 km/h (1 Bft)
12.11.2011 04:15 -0,1 C 10,5 C -0,2 C -0,6 C -1,7 C 0,0 C 87 % 89 % 0 % 1032,6 hPa 0,0 l/m 0,6 km/h (0 Bft) O-NO 67 0 min 0,0 UV-I -2,0 C -1,7 C 0,0 km/h (0 Bft)
12.11.2011 04:16 -0,1 C 10,5 C -0,2 C -0,6 C -1,7 C 0,0 C 87 % 89 % 0 % 1032,6 hPa 0,0 l/m 0,6 km/h (0 Bft) O-NO 67 0 min 0,0 UV-I -2,0 C -1,7 C 0,0 km/h (0 Bft)
12.11.2011 04:20 -0,1 C 10,5 C -0,1 C -0,6 C -1,6 C 0,0 C 86 % 88 % 0 % 1033,1 hPa 0,0 l/m 1,3 km/h (1 Bft) O-NO 67 0 min 0,0 UV-I -2,2 C -1,6 C 3,2 km/h (1 Bft)
12.11.2011 04:25 -0,1 C 10,6 C -0,3 C -0,6 C -1,6 C 0,0 C 85 % 88 % 0 % 1033,1 hPa 0,0 l/m 2,1 km/h (1 Bft) NO 45 0 min 0,0 UV-I -2,3 C -1,6 C 2,1 km/h (1 Bft)
12.11.2011 04:30 -0,1 C 10,6 C -0,3 C -0,6 C -1,6 C 0,0 C 85 % 88 % 0 % 1033,1 hPa 0,0 l/m 1,6 km/h (1 Bft) NO 45 0 min 0,0 UV-I -2,3 C -1,6 C 0,0 km/h (0 Bft)
12.11.2011 04:35 -0,3 C 10,6 C -0,5 C -0,8 C -1,7 C 0,0 C 85 % 87 % 0 % 1033,1 hPa 0,0 l/m 1,0 km/h (0 Bft) O-NO 67 0 min 0,0 UV-I -2,5 C -1,7 C 0,0 km/h (0 Bft)
12.11.2011 04:40 -0,3 C 10,5 C -0,5 C -0,8 C -1,8 C 0,0 C 85 % 88 % 0 % 1032,9 hPa 0,0 l/m 1,9 km/h (1 Bft) O-NO 67 0 min 0,0 UV-I -2,5 C -1,8 C 4,0 km/h (1 Bft)
12.11.2011 04:45 -0,1 C 10,5 C -0,4 C -0,7 C -2,0 C 0,0 C 85 % 88 % 0 % 1032,9 hPa 0,0 l/m 2,7 km/h (1 Bft) O 90 0 min 0,0 UV-I -2,3 C -2,0 C 3,2 km/h (1 Bft)
12.11.2011 04:50 -0,1 C 10,5 C -0,1 C -0,7 C -2,0 C 0,0 C 85 % 88 % 0 % 1032,9 hPa 0,0 l/m 2,7 km/h (1 Bft) O-NO 67 0 min 0,0 UV-I -2,3 C -2,0 C 2,4 km/h (1 Bft)
12.11.2011 04:55 -0,1 C 10,5 C -0,1 C -0,6 C -1,5 C 0,0 C 85 % 88 % 0 % 1032,9 hPa 0,0 l/m 1,6 km/h (1 Bft) O-NO 67 0 min 0,0 UV-I -2,3 C -1,5 C 2,1 km/h (1 Bft)
12.11.2011 05:00 0,0 C 10,3 C 0,1 C -0,5 C -1,5 C 0,0 C 85 % 88 % 0 % 1032,5 hPa 0,0 l/m 0,6 km/h (0 Bft) O-NO 67 0 min 0,0 UV-I -2,2 C -1,5 C 0,0 km/h (0 Bft)
12.11.2011 05:11 0,1 C 10,3 C -0,3 C -0,4 C -1,5 C 0,0 C 84 % 87 % 0 % 1032,5 hPa 0,0 l/m 1,1 km/h (1 Bft) N 0 0 min 0,0 UV-I -2,3 C -1,5 C 0,0 km/h (0 Bft)
12.11.2011 05:20 -0,1 C 10,5 C -0,7 C -0,7 C -2,0 C 0,0 C 84 % 87 % 0 % 1032,8 hPa 0,0 l/m 0,2 km/h (0 Bft) W-NW 292 0 min 0,0 UV-I -2,5 C -2,0 C 1,6 km/h (1 Bft)
12.11.2011 05:25 -0,1 C 10,5 C -0,5 C -0,7 C -1,9 C 0,0 C 84 % 87 % 0 % 1032,8 hPa 0,0 l/m 0,2 km/h (0 Bft) O-NO 67 0 min 0,0 UV-I -2,5 C -1,9 C 1,6 km/h (1 Bft)
12.11.2011 05:30 -0,1 C 10,3 C -0,6 C -0,7 C -1,8 C 0,0 C 84 % 88 % 0 % 1032,8 hPa 0,0 l/m 0,6 km/h (0 Bft) O-SO 112 0 min 0,0 UV-I -2,5 C -1,8 C 0,0 km/h (0 Bft)
12.11.2011 05:35 0,0 C 10,5 C -0,5 C -0,5 C -1,6 C 0,0 C 84 % 87 % 0 % 1032,8 hPa 0,0 l/m 1,0 km/h (0 Bft) O 90 0 min 0,0 UV-I -2,4 C -1,6 C 0,0 km/h (0 Bft)
12.11.2011 05:40 -0,1 C 10,5 C -0,5 C -0,6 C -1,6 C 0,0 C 84 % 87 % 0 % 1033,2 hPa 0,0 l/m 0,5 km/h (0 Bft) N-NW 337 0 min 0,0 UV-I -2,5 C -1,6 C 0,0 km/h (0 Bft)
12.11.2011 05:45 -0,1 C 10,5 C -0,7 C -0,7 C -1,8 C 0,0 C 84 % 87 % 0 % 1033,2 hPa 0,0 l/m 0,2 km/h (0 Bft) NO 45 0 min 0,0 UV-I -2,5 C -1,8 C 0,0 km/h (0 Bft)
12.11.2011 05:50 -0,3 C 10,5 C -0,9 C -0,9 C -2,0 C 0,0 C 84 % 87 % 0 % 1033,2 hPa 0,0 l/m 0,0 km/h (0 Bft) NO 45 0 min 0,0 UV-I -2,7 C -2,0 C 0,0 km/h (0 Bft)
12.11.2011 05:55 -0,5 C 10,5 C -1,0 C -1,1 C -2,4 C 0,0 C 84 % 88 % 0 % 1033,2 hPa 0,0 l/m 0,0 km/h (0 Bft) N-NW 337 0 min 0,0 UV-I -2,9 C -2,4 C 0,0 km/h (0 Bft)
12.11.2011 06:00 -0,5 C 10,5 C -1,0 C -1,2 C -2,5 C 0,0 C 84 % 88 % 0 % 1033,5 hPa 0,0 l/m 0,0 km/h (0 Bft) N-NW 337 0 min 0,0 UV-I -2,9 C -2,5 C 0,0 km/h (0 Bft)
12.11.2011 06:15 -0,9 C 10,5 C -1,3 C -1,5 C -2,6 C 0,0 C 85 % 88 % 0 % 1033,5 hPa 0,0 l/m 0,3 km/h (0 Bft) N-NW 337 0 min 0,0 UV-I -3,1 C -2,6 C 1,8 km/h (1 Bft)
12.11.2011 06:16 -0,9 C 10,5 C -1,3 C -1,5 C -2,6 C 0,0 C 85 % 88 % 0 % 1033,5 hPa 0,0 l/m 0,3 km/h (0 Bft) N-NW 337 0 min 0,0 UV-I -3,1 C -2,6 C 1,8 km/h (1 Bft)
12.11.2011 06:20 -1,1 C 10,6 C -1,5 C -1,6 C -2,7 C 0,0 C 85 % 88 % 0 % 1033,5 hPa 0,0 l/m 0,3 km/h (0 Bft) N-NW 337 0 min 0,0 UV-I -3,3 C -2,7 C 0,0 km/h (0 Bft)
12.11.2011 06:25 -1,1 C 10,6 C -1,5 C -1,7 C -2,8 C 0,0 C 85 % 88 % 0 % 1033,5 hPa 0,0 l/m 0,2 km/h (0 Bft) W-SW 247 0 min 0,0 UV-I -3,3 C -2,8 C 0,0 km/h (0 Bft)
12.11.2011 06:30 -1,3 C 10,5 C -1,5 C -1,8 C -2,9 C 0,0 C 86 % 88 % 0 % 1033,5 hPa 0,0 l/m 0,5 km/h (0 Bft) NW 315 0 min 0,0 UV-I -3,3 C -2,9 C 1,6 km/h (1 Bft)
12.11.2011 06:35 -1,3 C 10,5 C -1,5 C -1,9 C -3,0 C 0,0 C 86 % 89 % 0 % 1033,5 hPa 0,0 l/m 0,6 km/h (0 Bft) O-NO 67 0 min 0,0 UV-I -3,3 C -3,0 C 1,8 km/h (1 Bft)
12.11.2011 06:40 -1,5 C 10,5 C -1,7 C -2,0 C -3,0 C 0,0 C 86 % 88 % 0 % 1033,5 hPa 0,0 l/m 0,5 km/h (0 Bft) O-NO 67 0 min 0,0 UV-I -3,5 C -3,0 C 1,8 km/h (1 Bft)
12.11.2011 06:45 -1,6 C 10,5 C -1,8 C -2,1 C -3,0 C 0,0 C 86 % 88 % 0 % 1033,5 hPa 0,0 l/m 0,3 km/h (0 Bft) NO 45 0 min 0,0 UV-I -3,6 C -3,0 C 0,0 km/h (0 Bft)
12.11.2011 06:50 -1,5 C 10,5 C -1,7 C -2,0 C -2,9 C 0,0 C 86 % 89 % 0 % 1033,5 hPa 0,0 l/m 0,2 km/h (0 Bft) NO 45 0 min 0,0 UV-I -3,5 C -2,9 C 0,0 km/h (0 Bft)
12.11.2011 06:55 -1,5 C 10,6 C -1,7 C -1,9 C -2,8 C 0,0 C 87 % 89 % 0 % 1033,5 hPa 0,0 l/m 0,0 km/h (0 Bft) O-NO 67 0 min 0,0 UV-I -3,4 C -2,8 C 0,0 km/h (0 Bft)
12.11.2011 07:00 -1,7 C 10,6 C -1,7 C -2,1 C -2,9 C 0,0 C 86 % 89 % 0 % 1033,5 hPa 0,0 l/m 0,0 km/h (0 Bft) O-NO 67 0 min 0,0 UV-I -3,7 C -2,9 C 0,0 km/h (0 Bft)
12.11.2011 07:15 -2,1 C 10,6 C -2,0 C -2,5 C -3,3 C 0,0 C 87 % 89 % 0 % 1033,5 hPa 0,0 l/m 0,0 km/h (0 Bft) N-NW 337 0 min 0,0 UV-I -4,0 C -3,3 C 0,0 km/h (0 Bft)
12.11.2011 07:16 -2,1 C 10,6 C -2,0 C -2,5 C -3,3 C 0,0 C 87 % 89 % 0 % 1033,5 hPa 0,0 l/m 0,0 km/h (0 Bft) N-NW 337 0 min 0,0 UV-I -4,0 C -3,3 C 0,0 km/h (0 Bft)
12.11.2011 07:20 -2,1 C 10,6 C -2,1 C -2,5 C -3,4 C 0,0 C 87 % 89 % 0 % 1033,6 hPa 0,0 l/m 0,0 km/h (0 Bft) N-NW 337 0 min 0,0 UV-I -4,0 C -3,4 C 0,0 km/h (0 Bft)
12.11.2011 07:25 -2,1 C 10,6 C -2,1 C -2,5 C -3,4 C 0,0 C 87 % 89 % 0 % 1033,6 hPa 0,0 l/m 0,0 km/h (0 Bft) N-NO 22 0 min 0,0 UV-I -4,0 C -3,4 C 0,0 km/h (0 Bft)
12.11.2011 07:30 -2,1 C 10,6 C -2,2 C -2,5 C -3,2 C 0,0 C 87 % 89 % 0 % 1033,6 hPa 0,0 l/m 0,0 km/h (0 Bft) O-NO 67 0 min 0,0 UV-I -4,0 C -3,2 C 0,0 km/h (0 Bft)
12.11.2011 07:35 -2,1 C 10,6 C -2,1 C -2,4 C -3,1 C 0,0 C 88 % 89 % 0 % 1033,6 hPa 0,0 l/m 0,0 km/h (0 Bft) N-NO 22 0 min 0,0 UV-I -3,8 C -3,1 C 0,0 km/h (0 Bft)
12.11.2011 07:40 -2,1 C 10,5 C -2,1 C -2,4 C -3,1 C 0,0 C 88 % 89 % 0 % 1034,1 hPa 0,0 l/m 0,0 km/h (0 Bft) O-NO 67 0 min 0,0 UV-I -3,8 C -3,1 C 0,0 km/h (0 Bft)
12.11.2011 07:45 -2,1 C 10,6 C -1,9 C -2,4 C -3,1 C 0,0 C 88 % 90 % 0 % 1034,1 hPa 0,0 l/m 0,0 km/h (0 Bft) O-NO 67 0 min 0,0 UV-I -3,8 C -3,1 C 0,0 km/h (0 Bft)
12.11.2011 07:50 -2,1 C 10,6 C -1,9 C -2,4 C -3,1 C 0,0 C 88 % 89 % 0 % 1034,1 hPa 0,0 l/m 0,0 km/h (0 Bft) O-NO 67 0 min 0,0 UV-I -3,8 C -3,1 C 0,0 km/h (0 Bft)
12.11.2011 07:55 -2,1 C 10,5 C -2,0 C -2,4 C -3,1 C 0,0 C 88 % 89 % 0 % 1034,1 hPa 0,0 l/m 0,0 km/h (0 Bft) O 90 0 min 0,0 UV-I -3,8 C -3,1 C 0,0 km/h (0 Bft)
12.11.2011 08:00 -2,1 C 10,6 C -2,1 C -2,4 C -3,1 C 0,0 C 88 % 89 % 0 % 1034,1 hPa 0,0 l/m 0,0 km/h (0 Bft) O 90 0 min 0,0 UV-I -3,8 C -3,1 C 0,0 km/h (0 Bft)
12.11.2011 08:05 -2,3 C 10,5 C -2,1 C -2,5 C -3,0 C 0,0 C 88 % 89 % 0 % 1034,1 hPa 0,0 l/m 0,3 km/h (0 Bft) W-SW 247 0 min 0,0 UV-I -4,0 C -3,0 C 0,0 km/h (0 Bft)
12.11.2011 08:10 -2,4 C 10,5 C -2,1 C -2,5 C -2,8 C 0,0 C 88 % 89 % 0 % 1034,1 hPa 0,0 l/m 0,3 km/h (0 Bft) W-SW 247 0 min 0,0 UV-I -4,1 C -2,8 C 0,0 km/h (0 Bft)
12.11.2011 08:15 -2,5 C 10,5 C -2,1 C -2,6 C -2,9 C 0,0 C 88 % 89 % 0 % 1034,1 hPa 0,0 l/m 0,0 km/h (0 Bft) W 270 0 min 0,0 UV-I -4,2 C -2,9 C 0,0 km/h (0 Bft)
12.11.2011 08:20 -2,5 C 10,5 C -2,1 C -2,7 C -3,0 C 0,0 C 88 % 90 % 0 % 1034,4 hPa 0,0 l/m 0,0 km/h (0 Bft) W-SW 247 0 min 0,0 UV-I -4,2 C -3,0 C 0,0 km/h (0 Bft)
12.11.2011 08:25 -2,5 C 10,5 C -2,0 C -2,6 C -2,8 C 0,0 C 89 % 90 % 0 % 1034,4 hPa 0,0 l/m 0,0 km/h (0 Bft) W-SW 247 0 min 0,0 UV-I -4,1 C -2,8 C 0,0 km/h (0 Bft)
12.11.2011 08:30 -2,5 C 10,5 C -1,9 C -2,6 C -2,8 C 0,0 C 89 % 90 % 0 % 1034,4 hPa 0,0 l/m 0,2 km/h (0 Bft) W-NW 292 0 min 0,0 UV-I -4,1 C -2,8 C 0,0 km/h (0 Bft)
12.11.2011 08:35 -2,5 C 10,5 C -1,7 C -2,6 C -2,7 C 0,0 C 89 % 90 % 0 % 1034,4 hPa 0,0 l/m 0,3 km/h (0 Bft) W 270 0 min 0,0 UV-I -4,1 C -2,7 C 0,0 km/h (0 Bft)
12.11.2011 08:40 -2,4 C 10,5 C -1,9 C -2,4 C -2,5 C 0,0 C 89 % 90 % 0 % 1033,8 hPa 0,0 l/m 0,3 km/h (0 Bft) O-NO 67 0 min 0,0 UV-I -4,0 C -2,5 C 0,0 km/h (0 Bft)
12.11.2011 08:45 -2,3 C 10,5 C -1,7 C -2,3 C -2,4 C 0,0 C 89 % 90 % 0 % 1033,8 hPa 0,0 l/m 0,0 km/h (0 Bft) O-NO 67 0 min 0,0 UV-I -3,9 C -2,4 C 0,0 km/h (0 Bft)
12.11.2011 08:50 -2,1 C 10,5 C -1,7 C -2,2 C -2,3 C 0,0 C 89 % 90 % 0 % 1033,8 hPa 0,0 l/m 0,0 km/h (0 Bft) O-NO 67 0 min 0,0 UV-I -3,7 C -2,3 C 0,0 km/h (0 Bft)
12.11.2011 08:55 -2,1 C 10,3 C -1,5 C -1,9 C -1,9 C 0,2 C 89 % 90 % 5 % 1033,8 hPa 0,0 l/m 0,0 km/h (0 Bft) O-SO 112 0 min 0,0 UV-I -3,7 C -1,9 C 0,0 km/h (0 Bft)
12.11.2011 09:00 -2,1 C 10,2 C -1,3 C -1,7 C -1,7 C 0,4 C 89 % 90 % 11 % 1034,1 hPa 0,0 l/m 0,0 km/h (0 Bft) O-SO 112 0 min 0,0 UV-I -3,7 C -1,7 C 0,0 km/h (0 Bft)
12.11.2011 09:11 -1,7 C 10,2 C -1,1 C -1,6 C -1,6 C 0,1 C 90 % 90 % 3 % 1034,1 hPa 0,0 l/m 0,0 km/h (0 Bft) N 0 0 min 0,0 UV-I -3,1 C -1,6 C 0,0 km/h (0 Bft)
12.11.2011 09:20 -1,5 C 10,1 C -0,9 C -0,9 C -0,9 C 0,6 C 90 % 90 % 16 % 1034,1 hPa 0,0 l/m 0,0 km/h (0 Bft) O-NO 67 0 min 0,0 UV-I -2,9 C -0,9 C 0,0 km/h (0 Bft)
12.11.2011 09:25 -1,3 C 10,1 C -0,5 C 0,2 C 0,2 C 1,5 C 90 % 91 % 39 % 1034,1 hPa 0,0 l/m 0,5 km/h (0 Bft) O-SO 112 0 min 0,0 UV-I -2,7 C 0,2 C 0,0 km/h (0 Bft)
12.11.2011 09:30 -0,9 C 10,1 C -0,5 C 0,3 C 0,3 C 1,2 C 90 % 91 % 32 % 1034,1 hPa 0,0 l/m 0,6 km/h (0 Bft) W 270 0 min 0,0 UV-I -2,3 C 0,3 C 0,0 km/h (0 Bft)
12.11.2011 09:35 -0,7 C 10,1 C -0,4 C 0,2 C 0,2 C 0,9 C 90 % 91 % 24 % 1034,1 hPa 0,0 l/m 0,8 km/h (0 Bft) S-SW 202 0 min 0,0 UV-I -2,1 C 0,2 C 1,6 km/h (1 Bft)
12.11.2011 09:40 -0,5 C 10,1 C -0,3 C 0,3 C 0,3 C 0,8 C 90 % 91 % 21 % 1034,2 hPa 0,0 l/m 0,6 km/h (0 Bft) W 270 0 min 0,0 UV-I -1,9 C 0,3 C 0,0 km/h (0 Bft)
12.11.2011 09:45 -0,4 C 10,1 C -0,1 C 0,8 C 0,8 C 1,2 C 90 % 91 % 32 % 1034,2 hPa 0,0 l/m 0,3 km/h (0 Bft) S-SW 202 0 min 0,0 UV-I -1,8 C 0,8 C 0,0 km/h (0 Bft)
12.11.2011 09:50 -0,1 C 10,1 C -0,1 C 1,3 C 1,3 C 1,4 C 90 % 91 % 37 % 1034,2 hPa 0,0 l/m 0,0 km/h (0 Bft) W-SW 247 0 min 0,0 UV-I -1,5 C 1,3 C 1,6 km/h (1 Bft)
12.11.2011 09:55 0,3 C 10,1 C 0,4 C 1,7 C 1,7 C 1,4 C 90 % 91 % 37 % 1034,2 hPa 0,0 l/m 0,8 km/h (0 Bft) W-SW 247 0 min 0,0 UV-I -1,1 C 1,7 C 2,3 km/h (1 Bft)
12.11.2011 10:00 0,7 C 10,1 C 0,5 C 1,8 C 1,8 C 1,1 C 89 % 90 % 29 % 1034,2 hPa 0,0 l/m 1,1 km/h (1 Bft) W-SW 247 0 min 0,0 UV-I -0,9 C 1,8 C 2,3 km/h (1 Bft)
12.11.2011 10:15 2,0 C 10,1 C 1,2 C 4,1 C 4,1 C 2,1 C 87 % 90 % 55 % 1034,2 hPa 0,0 l/m 0,3 km/h (0 Bft) N-NO 22 0 min 0,0 UV-I 0,1 C 4,1 C 0,0 km/h (0 Bft)
12.11.2011 10:16 2,0 C 10,1 C 1,2 C 4,1 C 4,1 C 2,1 C 87 % 90 % 55 % 1034,2 hPa 0,0 l/m 0,3 km/h (0 Bft) N-NO 22 0 min 0,0 UV-I 0,1 C 4,1 C 0,0 km/h (0 Bft)
12.11.2011 10:20 2,3 C 10,1 C 1,5 C 4,2 C 4,2 C 1,9 C 86 % 90 % 50 % 1035,0 hPa 0,0 l/m 0,2 km/h (0 Bft) O-NO 67 0 min 0,0 UV-I 0,2 C 4,2 C 0,0 km/h (0 Bft)
12.11.2011 10:25 2,5 C 10,1 C 1,7 C 4,5 C 4,5 C 2,0 C 85 % 89 % 53 % 1035,0 hPa 0,0 l/m 0,2 km/h (0 Bft) S 180 0 min 0,0 UV-I 0,2 C 4,5 C 1,8 km/h (1 Bft)
12.11.2011 10:30 2,7 C 10,1 C 1,9 C 4,8 C 4,8 C 2,1 C 85 % 89 % 55 % 1035,0 hPa 0,0 l/m 0,2 km/h (0 Bft) SO 135 0 min 0,0 UV-I 0,4 C 4,8 C 0,0 km/h (0 Bft)
12.11.2011 10:35 2,8 C 10,0 C 2,2 C 4,7 C 4,7 C 1,9 C 83 % 89 % 50 % 1035,0 hPa 0,0 l/m 1,0 km/h (0 Bft) O-SO 112 0 min 0,0 UV-I 0,2 C 4,7 C 0,0 km/h (0 Bft)
12.11.2011 10:40 3,1 C 10,0 C 2,5 C 5,0 C 5,0 C 1,9 C 82 % 88 % 50 % 1035,0 hPa 0,0 l/m 1,3 km/h (1 Bft) O-NO 67 0 min 0,0 UV-I 0,3 C 5,0 C 0,0 km/h (0 Bft)
12.11.2011 10:45 3,2 C 10,0 C 2,7 C 5,4 C 5,4 C 2,2 C 81 % 87 % 58 % 1035,0 hPa 0,0 l/m 1,0 km/h (0 Bft) SO 135 0 min 0,0 UV-I 0,3 C 5,4 C 0,0 km/h (0 Bft)
12.11.2011 10:50 3,4 C 10,0 C 2,7 C 6,0 C 6,0 C 2,6 C 81 % 87 % 68 % 1035,0 hPa 0,0 l/m 0,3 km/h (0 Bft) S-SW 202 0 min 0,0 UV-I 0,5 C 6,0 C 1,8 km/h (1 Bft)
12.11.2011 10:55 3,5 C 10,0 C 3,1 C 7,3 C 7,3 C 3,8 C 81 % 86 % 100 % 1035,0 hPa 0,0 l/m 0,0 km/h (0 Bft) O-NO 67 5 min 0,0 UV-I 0,6 C 7,3 C 0,0 km/h (0 Bft)
12.11.2011 11:00 3,7 C 10,0 C 3,3 C 8,4 C 8,4 C 4,7 C 80 % 85 % 100 % 1034,6 hPa 0,0 l/m 0,0 km/h (0 Bft) NO 45 5 min 0,0 UV-I 0,6 C 8,4 C 0,0 km/h (0 Bft)
12.11.2011 11:12 4,0 C 10,0 C 3,4 C 8,4 C 8,4 C 4,4 C 79 % 85 % 100 % 1034,6 hPa 0,0 l/m 0,8 km/h (0 Bft) N 0 12 min 0,0 UV-I 0,7 C 8,4 C 0,0 km/h (0 Bft)
12.11.2011 11:20 4,3 C 10,0 C 3,7 C 8,2 C 8,2 C 3,9 C 77 % 84 % 100 % 1034,5 hPa 0,0 l/m 1,0 km/h (0 Bft) O 90 8 min 0,0 UV-I 0,6 C 8,2 C 2,4 km/h (1 Bft)
12.11.2011 11:25 4,6 C 10,0 C 4,0 C 7,4 C 7,4 C 2,8 C 75 % 82 % 74 % 1034,5 hPa 0,0 l/m 2,6 km/h (1 Bft) O-NO 67 0 min 0,0 UV-I 0,6 C 7,4 C 2,4 km/h (1 Bft)
12.11.2011 11:30 4,7 C 10,0 C 4,1 C 7,1 C 7,1 C 2,4 C 76 % 82 % 63 % 1034,5 hPa 0,0 l/m 2,1 km/h (1 Bft) O-NO 67 0 min 0,0 UV-I 0,8 C 7,1 C 0,0 km/h (0 Bft)
12.11.2011 11:35 4,9 C 10,0 C 4,3 C 6,8 C 6,8 C 1,9 C 75 % 81 % 50 % 1034,5 hPa 0,0 l/m 1,0 km/h (0 Bft) O-NO 67 0 min 0,0 UV-I 0,8 C 6,8 C 0,0 km/h (0 Bft)
12.11.2011 11:40 5,1 C 10,0 C 4,4 C 7,1 C 7,1 C 2,0 C 75 % 81 % 53 % 1034,4 hPa 0,0 l/m 0,6 km/h (0 Bft) NW 315 0 min 0,0 UV-I 1,0 C 7,1 C 0,0 km/h (0 Bft)
12.11.2011 11:45 5,2 C 10,0 C 4,5 C 7,8 C 7,8 C 2,6 C 73 % 80 % 68 % 1034,4 hPa 0,0 l/m 1,1 km/h (1 Bft) O-NO 67 0 min 0,0 UV-I 0,8 C 7,8 C 2,6 km/h (1 Bft)
12.11.2011 11:50 5,3 C 10,0 C 4,7 C 7,9 C 7,9 C 2,6 C 72 % 80 % 68 % 1034,4 hPa 0,0 l/m 2,1 km/h (1 Bft) O-NO 67 0 min 0,0 UV-I 0,7 C 7,9 C 3,2 km/h (1 Bft)
12.11.2011 11:55 5,4 C 10,0 C 4,8 C 8,1 C 8,1 C 2,7 C 71 % 79 % 71 % 1034,4 hPa 0,0 l/m 3,2 km/h (1 Bft) O 90 0 min 0,0 UV-I 0,6 C 8,1 C 4,3 km/h (1 Bft)
12.11.2011 12:00 5,5 C 10,0 C 4,9 C 8,0 C 8,0 C 2,5 C 70 % 79 % 66 % 1034,5 hPa 0,0 l/m 3,4 km/h (1 Bft) O 90 0 min 0,0 UV-I 0,5 C 8,0 C 5,6 km/h (1 Bft)
12.11.2011 12:05 5,6 C 10,0 C 5,1 C 7,6 C 7,6 C 2,0 C 70 % 77 % 53 % 1034,5 hPa 0,0 l/m 3,7 km/h (1 Bft) O-NO 67 0 min 0,0 UV-I 0,6 C 7,6 C 3,4 km/h (1 Bft)
12.11.2011 12:10 5,6 C 10,1 C 5,1 C 7,6 C 7,6 C 2,0 C 69 % 77 % 53 % 1034,5 hPa 0,0 l/m 3,4 km/h (1 Bft) NO 45 0 min 0,0 UV-I 0,4 C 7,6 C 3,2 km/h (1 Bft)
12.11.2011 12:15 5,7 C 10,1 C 5,2 C 7,7 C 7,7 C 2,0 C 70 % 77 % 53 % 1034,5 hPa 0,0 l/m 1,9 km/h (1 Bft) NO 45 0 min 0,0 UV-I 0,7 C 7,7 C 0,0 km/h (0 Bft)
12.11.2011 12:20 5,9 C 10,0 C 5,3 C 8,1 C 8,1 C 2,2 C 69 % 77 % 58 % 1034,9 hPa 0,0 l/m 1,4 km/h (1 Bft) O-NO 67 0 min 0,0 UV-I 0,7 C 8,1 C 4,2 km/h (1 Bft)
12.11.2011 12:25 5,8 C 10,0 C 5,5 C 7,9 C 7,9 C 2,1 C 70 % 76 % 55 % 1034,9 hPa 0,0 l/m 1,3 km/h (1 Bft) O-NO 67 0 min 0,0 UV-I 0,8 C 7,9 C 0,0 km/h (0 Bft)
12.11.2011 12:30 5,9 C 10,0 C 5,5 C 7,9 C 7,9 C 2,0 C 70 % 76 % 53 % 1034,9 hPa 0,0 l/m 1,8 km/h (1 Bft) O 90 0 min 0,0 UV-I 0,9 C 7,9 C 1,9 km/h (1 Bft)
12.11.2011 12:35 6,0 C 10,0 C 5,7 C 8,1 C 8,1 C 2,1 C 70 % 76 % 55 % 1034,9 hPa 0,0 l/m 1,8 km/h (1 Bft) S 180 0 min 0,0 UV-I 1,0 C 8,1 C 2,4 km/h (1 Bft)
12.11.2011 12:40 6,1 C 10,0 C 5,7 C 8,0 C 8,0 C 1,9 C 69 % 75 % 50 % 1034,9 hPa 0,0 l/m 1,9 km/h (1 Bft) W-SW 247 0 min 0,0 UV-I 0,8 C 8,0 C 4,0 km/h (1 Bft)
12.11.2011 12:45 6,3 C 10,0 C 5,9 C 8,1 C 8,1 C 1,8 C 69 % 75 % 47 % 1034,9 hPa 0,0 l/m 1,3 km/h (1 Bft) O-NO 67 0 min 0,0 UV-I 1,0 C 8,1 C 0,0 km/h (0 Bft)
12.11.2011 12:50 6,3 C 10,0 C 5,9 C 8,5 C 8,5 C 2,2 C 69 % 75 % 58 % 1034,9 hPa 0,0 l/m 1,0 km/h (0 Bft) S 180 0 min 0,0 UV-I 1,0 C 8,5 C 3,7 km/h (1 Bft)
12.11.2011 12:55 6,5 C 10,0 C 5,8 C 8,9 C 8,9 C 2,4 C 68 % 75 % 63 % 1034,9 hPa 0,0 l/m 1,1 km/h (1 Bft) SW 225 0 min 0,0 UV-I 1,0 C 8,9 C 1,6 km/h (1 Bft)
12.11.2011 13:00 6,7 C 10,0 C 6,0 C 8,8 C 8,8 C 2,1 C 68 % 74 % 55 % 1034,8 hPa 0,0 l/m 1,3 km/h (1 Bft) NO 45 0 min 0,0 UV-I 1,2 C 8,8 C 1,9 km/h (1 Bft)
12.11.2011 13:04 6,7 C 10,0 C 6,1 C 9,6 C 9,6 C 2,9 C 68 % 74 % 76 % 1034,8 hPa 0,0 l/m 0,5 km/h (0 Bft) O-NO 67 0 min 0,0 UV-I 1,2 C 9,6 C 0,0 km/h (0 Bft)
12.11.2011 13:09 6,7 C 10,0 C 6,2 C 10,4 C 10,4 C 3,7 C 67 % 74 % 97 % 1034,8 hPa 0,0 l/m 1,3 km/h (1 Bft) W-SW 247 5 min 0,0 UV-I 1,0 C 10,4 C 2,3 km/h (1 Bft)
12.11.2011 13:14 6,7 C 10,1 C 6,3 C 10,5 C 10,5 C 3,8 C 66 % 73 % 100 % 1034,8 hPa 0,0 l/m 1,8 km/h (1 Bft) NO 45 5 min 0,0 UV-I 0,8 C 10,5 C 3,2 km/h (1 Bft)
12.11.2011 13:18 6,7 C 10,1 C 6,3 C 10,5 C 10,5 C 3,8 C 66 % 73 % 100 % 1034,8 hPa 0,0 l/m 1,8 km/h (1 Bft) NO 45 4 min 0,0 UV-I 0,8 C 10,5 C 3,2 km/h (1 Bft)
12.11.2011 13:25 6,8 C 10,1 C 6,5 C 11,2 C 11,2 C 4,4 C 65 % 71 % 100 % 1034,7 hPa 0,0 l/m 2,1 km/h (1 Bft) NO 45 7 min 0,0 UV-I 0,7 C 11,2 C 2,3 km/h (1 Bft)
12.11.2011 13:30 6,9 C 10,1 C 6,4 C 11,1 C 11,1 C 4,2 C 65 % 71 % 100 % 1034,7 hPa 0,0 l/m 2,7 km/h (1 Bft) O-NO 67 5 min 0,0 UV-I 0,8 C 11,1 C 3,1 km/h (1 Bft)
12.11.2011 13:35 6,8 C 10,1 C 6,5 C 11,3 C 11,3 C 4,5 C 66 % 71 % 100 % 1034,7 hPa 0,0 l/m 2,1 km/h (1 Bft) O-NO 67 5 min 0,0 UV-I 0,9 C 11,3 C 3,9 km/h (1 Bft)
12.11.2011 13:40 6,8 C 10,1 C 6,7 C 10,9 C 10,9 C 4,1 C 66 % 71 % 100 % 1034,6 hPa 0,0 l/m 1,9 km/h (1 Bft) O-NO 67 5 min 0,0 UV-I 0,9 C 10,9 C 3,9 km/h (1 Bft)
12.11.2011 13:45 6,9 C 10,1 C 6,7 C 10,8 C 10,8 C 3,9 C 67 % 72 % 100 % 1034,6 hPa 0,0 l/m 2,6 km/h (1 Bft) O 90 5 min 0,0 UV-I 1,2 C 10,8 C 2,3 km/h (1 Bft)
12.11.2011 13:50 6,9 C 10,2 C 6,8 C 10,7 C 10,7 C 3,8 C 66 % 71 % 100 % 1034,6 hPa 0,0 l/m 2,3 km/h (1 Bft) O-NO 67 5 min 0,0 UV-I 1,0 C 10,7 C 2,9 km/h (1 Bft)
12.11.2011 13:55 7,1 C 10,2 C 6,9 C 10,7 C 10,7 C 3,6 C 67 % 71 % 95 % 1034,6 hPa 0,0 l/m 1,6 km/h (1 Bft) O-SO 112 5 min 0,0 UV-I 1,4 C 10,7 C 0,0 km/h (0 Bft)
12.11.2011 14:00 7,1 C 10,2 C 7,1 C 10,5 C 10,5 C 3,4 C 66 % 71 % 89 % 1034,8 hPa 0,0 l/m 1,8 km/h (1 Bft) N-NO 22 5 min 0,0 UV-I 1,2 C 10,5 C 2,7 km/h (1 Bft)
12.11.2011 14:04 7,1 C 10,2 C 8,7 C 10,2 C 10,2 C 3,1 C 66 % 68 % 82 % 1034,8 hPa 0,0 l/m 2,3 km/h (1 Bft) O-NO 67 0 min 0,0 UV-I 1,2 C 10,2 C 3,4 km/h (1 Bft)
12.11.2011 14:09 7,1 C 10,3 C 9,4 C 10,5 C 10,5 C 3,4 C 66 % 66 % 89 % 1034,8 hPa 0,0 l/m 2,4 km/h (1 Bft) O-SO 112 5 min 0,0 UV-I 1,2 C 10,5 C 0,0 km/h (0 Bft)
12.11.2011 14:14 7,2 C 10,3 C 10,3 C 10,9 C 10,9 C 3,7 C 66 % 63 % 97 % 1034,8 hPa 0,0 l/m 2,1 km/h (1 Bft) O 90 5 min 0,0 UV-I 1,3 C 10,9 C 1,6 km/h (1 Bft)
12.11.2011 14:18 7,2 C 10,3 C 10,3 C 10,9 C 10,9 C 3,7 C 66 % 63 % 97 % 1034,8 hPa 0,0 l/m 2,1 km/h (1 Bft) O 90 4 min 0,0 UV-I 1,3 C 10,9 C 1,6 km/h (1 Bft)
12.11.2011 14:25 7,3 C 10,3 C 9,7 C 12,1 C 12,1 C 4,8 C 67 % 63 % 100 % 1034,5 hPa 0,0 l/m 0,2 km/h (0 Bft) SW 225 7 min 0,0 UV-I 1,6 C 12,1 C 0,0 km/h (0 Bft)
12.11.2011 14:30 7,5 C 10,3 C 9,1 C 12,4 C 12,4 C 4,9 C 66 % 64 % 100 % 1034,5 hPa 0,0 l/m 0,0 km/h (0 Bft) O-NO 67 5 min 0,0 UV-I 1,6 C 12,4 C 0,0 km/h (0 Bft)
12.11.2011 14:35 7,5 C 10,3 C 8,5 C 11,9 C 11,9 C 4,4 C 67 % 65 % 100 % 1034,5 hPa 0,0 l/m 0,6 km/h (0 Bft) O 90 5 min 0,0 UV-I 1,8 C 11,9 C 0,0 km/h (0 Bft)
12.11.2011 14:40 7,5 C 10,3 C 8,3 C 11,8 C 11,8 C 4,3 C 67 % 66 % 100 % 1035,3 hPa 0,0 l/m 0,6 km/h (0 Bft) O-SO 112 5 min 0,0 UV-I 1,8 C 11,8 C 0,0 km/h (0 Bft)
12.11.2011 14:45 7,5 C 10,3 C 8,0 C 11,8 C 11,8 C 4,3 C 67 % 67 % 100 % 1035,3 hPa 0,0 l/m 0,5 km/h (0 Bft) O 90 5 min 0,0 UV-I 1,8 C 11,8 C 2,4 km/h (1 Bft)
12.11.2011 14:50 7,5 C 10,3 C 7,8 C 11,6 C 11,6 C 4,1 C 67 % 67 % 100 % 1035,3 hPa 0,0 l/m 1,0 km/h (0 Bft) O-NO 67 5 min 0,0 UV-I 1,8 C 11,6 C 0,0 km/h (0 Bft)
12.11.2011 14:55 7,2 C 10,3 C 7,6 C 11,4 C 11,4 C 4,2 C 68 % 69 % 100 % 1035,3 hPa 0,0 l/m 0,8 km/h (0 Bft) O-NO 67 5 min 0,0 UV-I 1,7 C 11,4 C 0,0 km/h (0 Bft)
12.11.2011 15:00 7,3 C 10,4 C 7,4 C 11,5 C 11,5 C 4,2 C 68 % 69 % 100 % 1034,9 hPa 0,0 l/m 0,0 km/h (0 Bft) N-NO 22 5 min 0,0 UV-I 1,8 C 11,5 C 0,0 km/h (0 Bft)
12.11.2011 15:04 7,2 C 10,4 C 7,2 C 11,5 C 11,5 C 4,3 C 68 % 70 % 100 % 1034,9 hPa 0,0 l/m 0,5 km/h (0 Bft) N 360 4 min 0,0 UV-I 1,7 C 11,5 C 3,4 km/h (1 Bft)
12.11.2011 15:09 7,1 C 10,4 C 7,2 C 11,3 C 11,3 C 4,2 C 68 % 70 % 100 % 1034,9 hPa 0,0 l/m 0,8 km/h (0 Bft) NW 315 5 min 0,0 UV-I 1,6 C 11,3 C 0,0 km/h (0 Bft)
12.11.2011 15:14 7,1 C 10,4 C 7,1 C 11,0 C 11,0 C 3,9 C 68 % 71 % 100 % 1034,9 hPa 0,0 l/m 0,5 km/h (0 Bft) N-NW 337 5 min 0,0 UV-I 1,6 C 11,0 C 0,0 km/h (0 Bft)
12.11.2011 15:18 7,1 C 10,4 C 7,1 C 11,0 C 11,0 C 3,9 C 68 % 71 % 100 % 1034,9 hPa 0,0 l/m 0,5 km/h (0 Bft) N-NW 337 4 min 0,0 UV-I 1,6 C 11,0 C 0,0 km/h (0 Bft)
12.11.2011 15:25 6,9 C 10,5 C 6,8 C 9,2 C 9,2 C 2,3 C 68 % 72 % 61 % 1035,4 hPa 0,0 l/m 0,0 km/h (0 Bft) W 270 0 min 0,0 UV-I 1,4 C 9,2 C 0,0 km/h (0 Bft)
12.11.2011 15:30 6,9 C 10,5 C 6,7 C 8,4 C 8,4 C 1,5 C 69 % 73 % 39 % 1035,4 hPa 0,0 l/m 0,0 km/h (0 Bft) SW 225 5 min 0,0 UV-I 1,6 C 8,4 C 0,0 km/h (0 Bft)
12.11.2011 15:35 6,8 C 10,5 C 6,7 C 7,4 C 7,4 C 0,6 C 70 % 73 % 16 % 1035,4 hPa 0,0 l/m 0,2 km/h (0 Bft) SW 225 0 min 0,0 UV-I 1,7 C 7,4 C 0,0 km/h (0 Bft)
12.11.2011 15:40 6,7 C 10,5 C 6,7 C 7,0 C 7,0 C 0,3 C 70 % 73 % 8 % 1035,4 hPa 0,0 l/m 0,2 km/h (0 Bft) SW 225 0 min 0,0 UV-I 1,6 C 7,0 C 0,0 km/h (0 Bft)
12.11.2011 15:45 6,5 C 10,5 C 6,3 C 7,0 C 7,0 C 0,5 C 70 % 74 % 13 % 1035,4 hPa 0,0 l/m 0,0 km/h (0 Bft) SW 225 0 min 0,0 UV-I 1,4 C 7,0 C 0,0 km/h (0 Bft)
12.11.2011 15:50 6,4 C 10,6 C 6,1 C 7,3 C 7,3 C 0,9 C 71 % 74 % 24 % 1035,4 hPa 0,0 l/m 0,0 km/h (0 Bft) S 180 5 min 0,0 UV-I 1,5 C 7,3 C 0,0 km/h (0 Bft)
12.11.2011 15:55 6,4 C 10,6 C 5,9 C 7,4 C 7,4 C 1,0 C 71 % 76 % 26 % 1035,4 hPa 0,0 l/m 0,2 km/h (0 Bft) W-SW 247 5 min 0,0 UV-I 1,5 C 7,4 C 0,0 km/h (0 Bft)
12.11.2011 16:00 6,4 C 10,6 C 5,8 C 7,2 C 7,2 C 0,8 C 72 % 76 % 21 % 1035,9 hPa 0,0 l/m 0,5 km/h (0 Bft) W-SW 247 5 min 0,0 UV-I 1,7 C 7,2 C 0,0 km/h (0 Bft)
12.11.2011 16:04 6,2 C 10,6 C 5,7 C 6,8 C 6,8 C 0,6 C 72 % 76 % 16 % 1035,9 hPa 0,0 l/m 0,3 km/h (0 Bft) SW 225 4 min 0,0 UV-I 1,5 C 6,8 C 0,0 km/h (0 Bft)
12.11.2011 16:09 6,1 C 10,6 C 5,5 C 6,4 C 6,4 C 0,3 C 72 % 76 % 8 % 1035,9 hPa 0,0 l/m 0,0 km/h (0 Bft) SW 225 5 min 0,0 UV-I 1,4 C 6,4 C 0,0 km/h (0 Bft)
12.11.2011 16:14 5,9 C 10,6 C 5,0 C 5,9 C 5,8 C 0,0 C 72 % 77 % 0 % 1035,9 hPa 0,0 l/m 0,0 km/h (0 Bft) SW 225 0 min 0,0 UV-I 1,2 C 5,8 C 0,0 km/h (0 Bft)
12.11.2011 16:19 5,9 C 10,6 C 5,0 C 5,9 C 5,8 C 0,0 C 72 % 77 % 0 % 1035,9 hPa 0,0 l/m 0,0 km/h (0 Bft) SW 225 0 min 0,0 UV-I 1,2 C 5,8 C 0,0 km/h (0 Bft)
12.11.2011 16:25 5,2 C 10,6 C 4,4 C 4,9 C 4,4 C 0,0 C 73 % 78 % 0 % 1036,1 hPa 0,0 l/m 0,0 km/h (0 Bft) SW 225 0 min 0,0 UV-I 0,8 C 4,4 C 0,0 km/h (0 Bft)
12.11.2011 16:30 4,9 C 10,6 C 4,3 C 4,6 C 4,0 C 0,0 C 74 % 78 % 0 % 1036,1 hPa 0,0 l/m 0,0 km/h (0 Bft) O-NO 67 0 min 0,0 UV-I 0,7 C 4,0 C 0,0 km/h (0 Bft)
12.11.2011 16:35 4,7 C 10,6 C 3,8 C 4,2 C 3,2 C 0,0 C 75 % 79 % 0 % 1036,1 hPa 0,0 l/m 0,2 km/h (0 Bft) W-SW 247 0 min 0,0 UV-I 0,7 C 3,2 C 0,0 km/h (0 Bft)
12.11.2011 16:40 4,4 C 10,7 C 3,7 C 3,9 C 2,8 C 0,0 C 76 % 79 % 0 % 1036,0 hPa 0,0 l/m 0,2 km/h (0 Bft) W 270 0 min 0,0 UV-I 0,5 C 2,8 C 0,0 km/h (0 Bft)
12.11.2011 16:45 4,1 C 10,7 C 3,6 C 3,5 C 2,2 C 0,0 C 76 % 80 % 0 % 1036,0 hPa 0,0 l/m 0,0 km/h (0 Bft) W 270 0 min 0,0 UV-I 0,3 C 2,2 C 0,0 km/h (0 Bft)
12.11.2011 16:50 3,8 C 10,8 C 3,4 C 3,2 C 1,9 C 0,0 C 77 % 80 % 0 % 1036,0 hPa 0,0 l/m 0,0 km/h (0 Bft) W 270 0 min 0,0 UV-I 0,1 C 1,9 C 0,0 km/h (0 Bft)
12.11.2011 16:55 3,5 C 10,8 C 3,1 C 2,9 C 1,7 C 0,0 C 77 % 80 % 0 % 1036,0 hPa 0,0 l/m 0,0 km/h (0 Bft) O-NO 67 0 min 0,0 UV-I -0,1 C 1,7 C 0,0 km/h (0 Bft)
12.11.2011 17:00 3,3 C 10,8 C 2,8 C 2,7 C 1,5 C 0,0 C 78 % 80 % 0 % 1036,2 hPa 0,0 l/m 0,0 km/h (0 Bft) O-NO 67 0 min 0,0 UV-I -0,2 C 1,5 C 0,0 km/h (0 Bft)
12.11.2011 17:04 3,1 C 10,8 C 2,5 C 2,5 C 1,2 C 0,0 C 79 % 81 % 0 % 1036,2 hPa 0,0 l/m 0,0 km/h (0 Bft) O-NO 67 0 min 0,0 UV-I -0,2 C 1,2 C 0,0 km/h (0 Bft)
12.11.2011 17:09 2,9 C 10,8 C 2,5 C 2,3 C 1,2 C 0,0 C 79 % 82 % 0 % 1036,2 hPa 0,0 l/m 0,2 km/h (0 Bft) O 90 0 min 0,0 UV-I -0,4 C 1,2 C 0,0 km/h (0 Bft)
12.11.2011 17:14 2,7 C 10,9 C 2,3 C 2,2 C 1,1 C 0,0 C 80 % 82 % 0 % 1036,2 hPa 0,0 l/m 0,2 km/h (0 Bft) O-NO 67 0 min 0,0 UV-I -0,4 C 1,1 C 0,0 km/h (0 Bft)
12.11.2011 17:18 2,7 C 10,9 C 2,3 C 2,2 C 1,1 C 0,0 C 80 % 82 % 0 % 1036,2 hPa 0,0 l/m 0,2 km/h (0 Bft) O-NO 67 0 min 0,0 UV-I -0,4 C 1,1 C 0,0 km/h (0 Bft)
12.11.2011 17:25 2,3 C 10,9 C 2,0 C 1,7 C 0,4 C 0,0 C 80 % 83 % 0 % 1036,0 hPa 0,0 l/m 0,0 km/h (0 Bft) O-NO 67 0 min 0,0 UV-I -0,8 C 0,4 C 0,0 km/h (0 Bft)
12.11.2011 17:30 2,2 C 10,9 C 1,9 C 1,6 C 0,3 C 0,0 C 81 % 83 % 0 % 1036,0 hPa 0,0 l/m 0,0 km/h (0 Bft) O-NO 67 0 min 0,0 UV-I -0,7 C 0,3 C 0,0 km/h (0 Bft)
12.11.2011 17:35 2,0 C 10,9 C 1,7 C 1,3 C -0,2 C 0,0 C 81 % 83 % 0 % 1036,0 hPa 0,0 l/m 0,0 km/h (0 Bft) O-NO 67 0 min 0,0 UV-I -0,9 C -0,2 C 0,0 km/h (0 Bft)
12.11.2011 17:40 1,9 C 10,9 C 1,5 C 1,2 C -0,3 C 0,0 C 81 % 83 % 0 % 1036,0 hPa 0,0 l/m 0,0 km/h (0 Bft) O-NO 67 0 min 0,0 UV-I -1,0 C -0,3 C 0,0 km/h (0 Bft)
12.11.2011 17:45 1,6 C 10,9 C 1,3 C 0,9 C -0,5 C 0,0 C 82 % 84 % 0 % 1036,0 hPa 0,0 l/m 0,0 km/h (0 Bft) O-NO 67 0 min 0,0 UV-I -1,1 C -0,5 C 0,0 km/h (0 Bft)
12.11.2011 17:50 1,5 C 10,9 C 1,2 C 0,8 C -0,7 C 0,0 C 82 % 84 % 0 % 1036,0 hPa 0,0 l/m 0,0 km/h (0 Bft) W-SW 247 0 min 0,0 UV-I -1,2 C -0,7 C 0,0 km/h (0 Bft)
12.11.2011 17:55 1,2 C 11,0 C 1,2 C 0,6 C -0,7 C 0,0 C 83 % 85 % 0 % 1036,0 hPa 0,0 l/m 0,0 km/h (0 Bft) W-SW 247 0 min 0,0 UV-I -1,4 C -0,7 C 0,0 km/h (0 Bft)
12.11.2011 18:00 1,2 C 11,0 C 1,0 C 0,6 C -0,7 C 0,0 C 83 % 85 % 0 % 1036,0 hPa 0,0 l/m 0,0 km/h (0 Bft) O-NO 67 0 min 0,0 UV-I -1,4 C -0,7 C 0,0 km/h (0 Bft)
12.11.2011 18:14 0,8 C 11,0 C 0,8 C 0,2 C -0,9 C 0,0 C 84 % 86 % 0 % 1036,0 hPa 0,0 l/m 0,2 km/h (0 Bft) W-SW 247 0 min 0,0 UV-I -1,6 C -0,9 C 0,0 km/h (0 Bft)
12.11.2011 18:18 0,8 C 11,0 C 0,8 C 0,2 C -0,9 C 0,0 C 84 % 86 % 0 % 1036,0 hPa 0,0 l/m 0,2 km/h (0 Bft) W-SW 247 0 min 0,0 UV-I -1,6 C -0,9 C 0,0 km/h (0 Bft)
12.11.2011 18:25 0,5 C 11,1 C 0,5 C -0,2 C -1,5 C 0,0 C 85 % 86 % 0 % 1036,0 hPa 0,0 l/m 0,0 km/h (0 Bft) W 270 0 min 0,0 UV-I -1,7 C -1,5 C 0,0 km/h (0 Bft)
12.11.2011 18:30 0,4 C 11,0 C 0,5 C -0,2 C -1,4 C 0,0 C 85 % 86 % 0 % 1036,0 hPa 0,0 l/m 0,0 km/h (0 Bft) W-NW 292 0 min 0,0 UV-I -1,8 C -1,4 C 0,0 km/h (0 Bft)
12.11.2011 18:35 0,4 C 11,1 C 0,5 C -0,1 C -1,2 C 0,0 C 86 % 87 % 0 % 1036,0 hPa 0,0 l/m 0,2 km/h (0 Bft) NW 315 0 min 0,0 UV-I -1,7 C -1,2 C 0,0 km/h (0 Bft)
12.11.2011 18:40 0,4 C 11,1 C 0,2 C -0,1 C -1,1 C 0,0 C 86 % 86 % 0 % 1036,0 hPa 0,0 l/m 0,0 km/h (0 Bft) NO 45 0 min 0,0 UV-I -1,7 C -1,1 C 0,0 km/h (0 Bft)
12.11.2011 18:45 0,3 C 11,1 C 0,2 C -0,2 C -1,2 C 0,0 C 86 % 87 % 0 % 1036,0 hPa 0,0 l/m 0,2 km/h (0 Bft) W 270 0 min 0,0 UV-I -1,8 C -1,2 C 0,0 km/h (0 Bft)
12.11.2011 18:50 0,3 C 11,1 C 0,3 C -0,2 C -1,3 C 0,0 C 86 % 87 % 0 % 1036,0 hPa 0,0 l/m 0,2 km/h (0 Bft) W-SW 247 0 min 0,0 UV-I -1,8 C -1,3 C 0,0 km/h (0 Bft)
12.11.2011 18:55 0,0 C 11,1 C 0,1 C -0,5 C -1,5 C 0,0 C 86 % 87 % 0 % 1036,0 hPa 0,0 l/m 0,0 km/h (0 Bft) W-NW 292 0 min 0,0 UV-I -2,1 C -1,5 C 0,0 km/h (0 Bft)
12.11.2011 19:00 0,0 C 11,1 C -0,1 C -0,5 C -1,5 C 0,0 C 86 % 87 % 0 % 1036,6 hPa 0,0 l/m 0,0 km/h (0 Bft) W-NW 292 0 min 0,0 UV-I -2,1 C -1,5 C 0,0 km/h (0 Bft)
12.11.2011 19:04 -0,1 C 11,2 C -0,1 C -0,5 C -1,4 C 0,0 C 87 % 87 % 0 % 1036,6 hPa 0,0 l/m 0,0 km/h (0 Bft) W-NW 292 0 min 0,0 UV-I -2,0 C -1,4 C 0,0 km/h (0 Bft)
12.11.2011 19:09 -0,1 C 11,2 C 0,1 C -0,5 C -1,4 C 0,0 C 87 % 88 % 0 % 1036,6 hPa 0,0 l/m 0,0 km/h (0 Bft) W-NW 292 0 min 0,0 UV-I -2,0 C -1,4 C 0,0 km/h (0 Bft)
12.11.2011 19:14 -0,1 C 11,1 C 0,0 C -0,6 C -1,6 C 0,0 C 87 % 88 % 0 % 1036,6 hPa 0,0 l/m 0,0 km/h (0 Bft) W-SW 247 0 min 0,0 UV-I -2,0 C -1,6 C 0,0 km/h (0 Bft)
12.11.2011 19:18 -0,1 C 11,1 C 0,0 C -0,6 C -1,6 C 0,0 C 87 % 88 % 0 % 1036,6 hPa 0,0 l/m 0,0 km/h (0 Bft) W-SW 247 0 min 0,0 UV-I -2,0 C -1,6 C 0,0 km/h (0 Bft)
12.11.2011 19:25 -0,3 C 11,1 C -0,1 C -0,8 C -1,8 C 0,0 C 87 % 88 % 0 % 1036,8 hPa 0,0 l/m 0,2 km/h (0 Bft) W 270 0 min 0,0 UV-I -2,2 C -1,8 C 0,0 km/h (0 Bft)
12.11.2011 19:30 -0,3 C 11,1 C -0,1 C -0,8 C -1,8 C 0,0 C 87 % 88 % 0 % 1036,8 hPa 0,0 l/m 0,2 km/h (0 Bft) N-NW 337 0 min 0,0 UV-I -2,2 C -1,8 C 0,0 km/h (0 Bft)
12.11.2011 19:35 -0,5 C 11,2 C -0,4 C -0,9 C -1,8 C 0,0 C 87 % 88 % 0 % 1036,8 hPa 0,0 l/m 0,0 km/h (0 Bft) NW 315 0 min 0,0 UV-I -2,4 C -1,8 C 0,0 km/h (0 Bft)
12.11.2011 19:40 -0,5 C 11,1 C -0,5 C -0,9 C -1,8 C 0,0 C 87 % 88 % 0 % 1036,8 hPa 0,0 l/m 0,0 km/h (0 Bft) W 270 0 min 0,0 UV-I -2,4 C -1,8 C 0,0 km/h (0 Bft)
12.11.2011 19:45 -0,5 C 11,2 C -0,3 C -1,0 C -2,0 C 0,0 C 87 % 88 % 0 % 1036,8 hPa 0,0 l/m 0,0 km/h (0 Bft) NW 315 0 min 0,0 UV-I -2,4 C -2,0 C 0,0 km/h (0 Bft)
12.11.2011 19:50 -0,7 C 11,2 C -0,5 C -1,1 C -2,0 C 0,0 C 87 % 88 % 0 % 1036,8 hPa 0,0 l/m 0,0 km/h (0 Bft) NO 45 0 min 0,0 UV-I -2,6 C -2,0 C 0,0 km/h (0 Bft)
12.11.2011 19:55 -0,7 C 11,2 C -0,7 C -1,1 C -1,9 C 0,0 C 87 % 88 % 0 % 1036,8 hPa 0,0 l/m 0,0 km/h (0 Bft) N-NO 22 0 min 0,0 UV-I -2,6 C -1,9 C 0,0 km/h (0 Bft)
12.11.2011 20:00 -0,8 C 11,1 C -0,5 C -1,2 C -1,9 C 0,0 C 87 % 88 % 0 % 1036,8 hPa 0,0 l/m 0,3 km/h (0 Bft) W-SW 247 0 min 0,0 UV-I -2,7 C -1,9 C 1,8 km/h (1 Bft)
12.11.2011 20:04 -0,9 C 11,1 C -0,5 C -1,3 C -2,2 C 0,0 C 88 % 88 % 0 % 1036,8 hPa 0,0 l/m 0,5 km/h (0 Bft) SW 225 0 min 0,0 UV-I -2,6 C -2,2 C 0,0 km/h (0 Bft)
12.11.2011 20:09 -0,9 C 11,1 C -0,7 C -1,4 C -2,3 C 0,0 C 88 % 88 % 0 % 1036,8 hPa 0,0 l/m 0,2 km/h (0 Bft) SW 225 0 min 0,0 UV-I -2,6 C -2,3 C 0,0 km/h (0 Bft)
12.11.2011 20:14 -1,1 C 11,2 C -0,9 C -1,5 C -2,4 C 0,0 C 87 % 88 % 0 % 1036,8 hPa 0,0 l/m 0,0 km/h (0 Bft) SW 225 0 min 0,0 UV-I -3,0 C -2,4 C 0,0 km/h (0 Bft)
12.11.2011 20:18 -1,1 C 11,2 C -0,9 C -1,5 C -2,4 C 0,0 C 87 % 88 % 0 % 1036,8 hPa 0,0 l/m 0,0 km/h (0 Bft) SW 225 0 min 0,0 UV-I -3,0 C -2,4 C 0,0 km/h (0 Bft)
12.11.2011 20:25 -1,2 C 11,1 C -0,9 C -1,7 C -2,6 C 0,0 C 88 % 88 % 0 % 1036,8 hPa 0,0 l/m 0,0 km/h (0 Bft) W-SW 247 0 min 0,0 UV-I -2,9 C -2,6 C 0,0 km/h (0 Bft)
12.11.2011 20:30 -1,3 C 11,1 C -0,9 C -1,7 C -2,6 C 0,0 C 88 % 89 % 0 % 1036,8 hPa 0,0 l/m 0,0 km/h (0 Bft) W-SW 247 0 min 0,0 UV-I -3,0 C -2,6 C 0,0 km/h (0 Bft)
12.11.2011 20:35 -1,3 C 11,1 C -0,9 C -1,8 C -2,8 C 0,0 C 88 % 89 % 0 % 1036,8 hPa 0,0 l/m 0,0 km/h (0 Bft) W 270 0 min 0,0 UV-I -3,0 C -2,8 C 0,0 km/h (0 Bft)
12.11.2011 20:40 -1,4 C 11,1 C -0,9 C -1,9 C -2,9 C 0,0 C 88 % 89 % 0 % 1036,8 hPa 0,0 l/m 0,0 km/h (0 Bft) W-SW 247 0 min 0,0 UV-I -3,1 C -2,9 C 0,0 km/h (0 Bft)
12.11.2011 20:45 -1,5 C 11,1 C -1,1 C -2,0 C -2,9 C 0,0 C 88 % 88 % 0 % 1036,8 hPa 0,0 l/m 0,3 km/h (0 Bft) O 90 0 min 0,0 UV-I -3,2 C -2,9 C 1,6 km/h (1 Bft)
12.11.2011 20:50 -1,5 C 11,1 C -1,3 C -1,9 C -2,8 C 0,0 C 88 % 89 % 0 % 1036,8 hPa 0,0 l/m 0,3 km/h (0 Bft) O-NO 67 0 min 0,0 UV-I -3,2 C -2,8 C 0,0 km/h (0 Bft)
12.11.2011 20:55 -1,6 C 11,1 C -1,3 C -2,0 C -2,9 C 0,0 C 88 % 89 % 0 % 1036,8 hPa 0,0 l/m 0,0 km/h (0 Bft) O-SO 112 0 min 0,0 UV-I -3,3 C -2,9 C 0,0 km/h (0 Bft)
12.11.2011 21:00 -1,5 C 11,1 C -1,3 C -2,0 C -2,9 C 0,0 C 88 % 89 % 0 % 1037,1 hPa 0,0 l/m 0,0 km/h (0 Bft) O-SO 112 0 min 0,0 UV-I -3,2 C -2,9 C 0,0 km/h (0 Bft)
12.11.2011 21:04 -1,7 C 11,1 C -1,3 C -2,2 C -3,1 C 0,0 C 88 % 89 % 0 % 1037,1 hPa 0,0 l/m 0,2 km/h (0 Bft) W 270 0 min 0,0 UV-I -3,4 C -3,1 C 1,9 km/h (1 Bft)
12.11.2011 21:09 -1,7 C 11,1 C -1,3 C -2,1 C -3,0 C 0,0 C 88 % 89 % 0 % 1037,1 hPa 0,0 l/m 0,3 km/h (0 Bft) W-SW 247 0 min 0,0 UV-I -3,4 C -3,0 C 0,0 km/h (0 Bft)
12.11.2011 21:14 -1,7 C 11,1 C -1,3 C -2,2 C -3,1 C 0,0 C 88 % 89 % 0 % 1037,1 hPa 0,0 l/m 0,3 km/h (0 Bft) O 90 0 min 0,0 UV-I -3,4 C -3,1 C 0,0 km/h (0 Bft)
12.11.2011 21:18 -1,7 C 11,1 C -1,3 C -2,2 C -3,1 C 0,0 C 88 % 89 % 0 % 1037,1 hPa 0,0 l/m 0,3 km/h (0 Bft) O 90 0 min 0,0 UV-I -3,4 C -3,1 C 0,0 km/h (0 Bft)
12.11.2011 21:25 -1,9 C 11,1 C -1,5 C -2,3 C -3,0 C 0,0 C 88 % 89 % 0 % 1037,1 hPa 0,0 l/m 0,2 km/h (0 Bft) O 90 0 min 0,0 UV-I -3,6 C -3,0 C 0,0 km/h (0 Bft)
12.11.2011 21:30 -1,9 C 11,1 C -1,5 C -2,3 C -3,1 C 0,0 C 89 % 89 % 0 % 1037,1 hPa 0,0 l/m 0,0 km/h (0 Bft) O 90 0 min 0,0 UV-I -3,5 C -3,1 C 0,0 km/h (0 Bft)
12.11.2011 21:35 -2,0 C 11,0 C -1,5 C -2,4 C -3,2 C 0,0 C 89 % 90 % 0 % 1037,1 hPa 0,0 l/m 0,2 km/h (0 Bft) W 270 0 min 0,0 UV-I -3,6 C -3,2 C 0,0 km/h (0 Bft)
12.11.2011 21:40 -2,0 C 11,0 C -1,3 C -2,4 C -3,2 C 0,0 C 89 % 90 % 0 % 1037,1 hPa 0,0 l/m 0,2 km/h (0 Bft) W 270 0 min 0,0 UV-I -3,6 C -3,2 C 0,0 km/h (0 Bft)
12.11.2011 21:45 -2,1 C 11,0 C -1,6 C -2,5 C -3,2 C 0,0 C 89 % 90 % 0 % 1037,1 hPa 0,0 l/m 0,0 km/h (0 Bft) W 270 0 min 0,0 UV-I -3,7 C -3,2 C 0,0 km/h (0 Bft)
12.11.2011 21:50 -2,1 C 11,0 C -1,7 C -2,4 C -3,1 C 0,0 C 89 % 90 % 0 % 1037,1 hPa 0,0 l/m 0,0 km/h (0 Bft) O 90 0 min 0,0 UV-I -3,7 C -3,1 C 0,0 km/h (0 Bft)
12.11.2011 21:55 -2,1 C 11,0 C -1,7 C -2,5 C -3,2 C 0,0 C 89 % 90 % 0 % 1037,1 hPa 0,0 l/m 0,0 km/h (0 Bft) O 90 0 min 0,0 UV-I -3,7 C -3,2 C 0,0 km/h (0 Bft)
12.11.2011 22:00 -2,1 C 11,0 C -1,7 C -2,5 C -3,4 C 0,0 C 89 % 90 % 0 % 1037,1 hPa 0,0 l/m 0,0 km/h (0 Bft) O-NO 67 0 min 0,0 UV-I -3,7 C -3,4 C 0,0 km/h (0 Bft)
12.11.2011 22:04 -2,2 C 11,0 C -1,7 C -2,6 C -3,4 C 0,0 C 89 % 90 % 0 % 1037,1 hPa 0,0 l/m 0,0 km/h (0 Bft) O-NO 67 0 min 0,0 UV-I -3,8 C -3,4 C 0,0 km/h (0 Bft)
12.11.2011 22:09 -2,1 C 11,0 C -1,7 C -2,6 C -3,5 C 0,0 C 89 % 90 % 0 % 1037,1 hPa 0,0 l/m 0,0 km/h (0 Bft) O-NO 67 0 min 0,0 UV-I -3,7 C -3,5 C 0,0 km/h (0 Bft)
12.11.2011 22:14 -2,3 C 11,0 C -1,7 C -2,8 C -3,7 C 0,0 C 89 % 90 % 0 % 1037,1 hPa 0,0 l/m 0,0 km/h (0 Bft) O-NO 67 0 min 0,0 UV-I -3,9 C -3,7 C 0,0 km/h (0 Bft)
12.11.2011 22:18 -2,3 C 11,0 C -1,7 C -2,8 C -3,7 C 0,0 C 89 % 90 % 0 % 1037,1 hPa 0,0 l/m 0,0 km/h (0 Bft) O-NO 67 0 min 0,0 UV-I -3,9 C -3,7 C 0,0 km/h (0 Bft)
12.11.2011 22:25 -2,3 C 11,0 C -1,9 C -2,7 C -3,6 C 0,0 C 89 % 89 % 0 % 1037,1 hPa 0,0 l/m 0,0 km/h (0 Bft) O-NO 67 0 min 0,0 UV-I -3,9 C -3,6 C 0,0 km/h (0 Bft)
12.11.2011 22:30 -2,4 C 11,0 C -1,9 C -2,8 C -3,6 C 0,0 C 89 % 89 % 0 % 1037,1 hPa 0,0 l/m 0,0 km/h (0 Bft) O 90 0 min 0,0 UV-I -4,0 C -3,6 C 0,0 km/h (0 Bft)
12.11.2011 22:35 -2,4 C 11,0 C -1,7 C -2,8 C -3,6 C 0,0 C 89 % 90 % 0 % 1037,1 hPa 0,0 l/m 0,0 km/h (0 Bft) O 90 0 min 0,0 UV-I -4,0 C -3,6 C 0,0 km/h (0 Bft)
12.11.2011 22:40 -2,4 C 11,0 C -1,9 C -2,8 C -3,6 C 0,0 C 89 % 90 % 0 % 1037,0 hPa 0,0 l/m 0,0 km/h (0 Bft) O-NO 67 0 min 0,0 UV-I -4,0 C -3,6 C 0,0 km/h (0 Bft)
12.11.2011 22:45 -2,5 C 11,0 C -2,0 C -2,9 C -3,7 C 0,0 C 89 % 90 % 0 % 1037,0 hPa 0,0 l/m 0,0 km/h (0 Bft) O-NO 67 0 min 0,0 UV-I -4,1 C -3,7 C 0,0 km/h (0 Bft)
12.11.2011 22:50 -2,5 C 11,0 C -1,9 C -2,9 C -3,7 C 0,0 C 89 % 90 % 0 % 1037,0 hPa 0,0 l/m 0,0 km/h (0 Bft) O-NO 67 0 min 0,0 UV-I -4,1 C -3,7 C 0,0 km/h (0 Bft)
12.11.2011 22:55 -2,5 C 10,9 C -2,1 C -2,8 C -3,5 C 0,0 C 89 % 90 % 0 % 1037,0 hPa 0,0 l/m 0,0 km/h (0 Bft) O 90 0 min 0,0 UV-I -4,1 C -3,5 C 0,0 km/h (0 Bft)
12.11.2011 23:00 -2,5 C 10,9 C -2,1 C -2,8 C -3,4 C 0,0 C 90 % 90 % 0 % 1037,0 hPa 0,0 l/m 0,0 km/h (0 Bft) O-NO 67 0 min 0,0 UV-I -3,9 C -3,4 C 0,0 km/h (0 Bft)
12.11.2011 23:04 -2,5 C 10,9 C -2,1 C -2,8 C -3,5 C 0,0 C 90 % 90 % 0 % 1037,0 hPa 0,0 l/m 0,0 km/h (0 Bft) W-SW 247 0 min 0,0 UV-I -3,9 C -3,5 C 0,0 km/h (0 Bft)
12.11.2011 23:09 -2,5 C 10,9 C -2,0 C -2,9 C -3,6 C 0,0 C 90 % 90 % 0 % 1037,0 hPa 0,0 l/m 0,0 km/h (0 Bft) W-SW 247 0 min 0,0 UV-I -3,9 C -3,6 C 0,0 km/h (0 Bft)
12.11.2011 23:14 -2,5 C 10,9 C -2,1 C -2,9 C -3,7 C 0,0 C 90 % 90 % 0 % 1037,0 hPa 0,0 l/m 0,0 km/h (0 Bft) S 180 0 min 0,0 UV-I -3,9 C -3,7 C 0,0 km/h (0 Bft)
12.11.2011 23:18 -2,5 C 10,9 C -2,1 C -2,9 C -3,7 C 0,0 C 90 % 90 % 0 % 1037,0 hPa 0,0 l/m 0,0 km/h (0 Bft) S 180 0 min 0,0 UV-I -3,9 C -3,7 C 0,0 km/h (0 Bft)
12.11.2011 23:25 -2,5 C 10,9 C -2,3 C -2,9 C -3,7 C 0,0 C 90 % 90 % 0 % 1037,7 hPa 0,0 l/m 0,0 km/h (0 Bft) S 180 0 min 0,0 UV-I -3,9 C -3,7 C 0,0 km/h (0 Bft)
12.11.2011 23:30 -2,5 C 10,9 C -2,3 C -2,9 C -3,6 C 0,0 C 90 % 90 % 0 % 1037,7 hPa 0,0 l/m 0,0 km/h (0 Bft) S 180 0 min 0,0 UV-I -3,9 C -3,6 C 0,0 km/h (0 Bft)
12.11.2011 23:35 -2,5 C 10,9 C -2,4 C -2,8 C -3,5 C 0,0 C 90 % 90 % 0 % 1037,7 hPa 0,0 l/m 0,0 km/h (0 Bft) O 90 0 min 0,0 UV-I -3,9 C -3,5 C 0,0 km/h (0 Bft)
12.11.2011 23:40 -2,5 C 10,9 C -2,4 C -2,8 C -3,4 C 0,0 C 90 % 90 % 0 % 1038,1 hPa 0,0 l/m 0,0 km/h (0 Bft) O-SO 112 0 min 0,0 UV-I -3,9 C -3,4 C 0,0 km/h (0 Bft)
12.11.2011 23:45 -2,5 C 10,9 C -2,3 C -2,8 C -3,3 C 0,0 C 90 % 90 % 0 % 1038,1 hPa 0,0 l/m 0,0 km/h (0 Bft) O 90 0 min 0,0 UV-I -3,9 C -3,3 C 0,0 km/h (0 Bft)
12.11.2011 23:50 -2,5 C 10,8 C -2,3 C -2,7 C -3,2 C 0,0 C 90 % 90 % 0 % 1038,1 hPa 0,0 l/m 0,0 km/h (0 Bft) O 90 0 min 0,0 UV-I -3,9 C -3,2 C 0,0 km/h (0 Bft)
12.11.2011 23:55 -2,4 C 10,8 C -2,3 C -2,7 C -3,3 C 0,0 C 90 % 91 % 0 % 1038,1 hPa 0,0 l/m 0,0 km/h (0 Bft) O-SO 112 0 min 0,0 UV-I -3,8 C -3,3 C 0,0 km/h (0 Bft)
_ Min-Zeit 08:15 10:35 23:35 22:45 22:14 00:00 13:25 14:14 00:00 05:00 - 00:26 - - - 00:00 08:15 22:14 00:00
Minimum _ -2,5 C 10,0 C -2,4 C -2,9 C -3,7 C 0,0 C 65 % 63 % 0 % 1032,5 hPa - 0,0 km/h (0 Bft) - - - 0,0 UV-I -4,2 C -3,7 C 0,0 km/h (0 Bft)
_ Max-Zeit 14:30 19:04 14:14 14:30 14:30 14:30 09:11 01:20 10:55 23:40 00:00 01:55 - - 11:12 00:00 15:00 14:30 02:00
Maximum _ 7,5 C 11,2 C 10,3 C 12,4 C 12,4 C 4,9 C 90 % 91 % 100 % 1038,1 hPa 0,0 l/m 4,0 km/h
O-SO (1 Bft)
- - 12 min 0,0 UV-I 1,8 C 12,4 C 8,2 km/h
O-SO (2 Bft)
Durchschnitt _ 1,0 C 10,6 C 1,0 C 1,5 C 0,8 C 0,8 C 82 % 85 % 19 % 1034,9 hPa #0,0 l/m 0,6 km/h (0 Bft) O-NO - #3:09 h 0,0 UV-I -1,7 C 0,8 C 0,8 km/h (0 Bft)
2011 www.wetterstation-wechselburg.de